Location: Auckland
(36.8670°S, 174.7670°E)
Time: 19:44:11
(UTC+12:00)

Tiros 1 despin weight - Pass Details

Date: 20 July 2019
Orbit: 594 x 642 km, 48.2° (Epoch: 21 August)

Event Time Altitude Azimuth Distance (km) Brightness Sun altitude
Rises 08:29:19 0° 251° (WSW) 2,901 ? 9.6°
Reaches altitude 10° 08:32:20 10° 272° (W) 1,998 ? 10.1°
Maximum altitude 08:35:13 17° 311° (NW) 1,613 ? 10.6°
Drops below altitude 10° 08:38:07 10° 350° (N) 2,003 ? 11.0°
Sets 08:41:10 0° 10° (N) 2,911 ? 11.5°
